Location: Bluff Heights
(33.7692°N, 118.1592°W)
Time: 22:19:47
(UTC+00:00)

AO-73 - Pass Details

Date: 26 September 2021
Orbit: 580 x 662 km, 97.6° (Epoch: 19 October)

Event Time Altitude Azimuth Distance (km) Brightness Sun altitude
Rises 11:59:02 0° 21° (NNE) 2,845 ? -22.4°
Reaches altitude 10° 12:01:21 10° 30° (NNE) 1,928 ? -21.9°
Maximum altitude 12:05:13 36° 98° (E) 928 ? -21.2°
Drops below altitude 10° 12:09:01 10° 166° (SSE) 1,891 ? -20.4°
Sets 12:11:16 0° 175° (S) 2,782 ? -19.9°
